Location: Alladorf
(49.9620°N, 11.3790°E)
Time: 21:31:07
(UTC+00:00)

CZ-4B R/B - Pass Details

Date: 29 November 2020
Orbit: 485 x 653 km, 97.9° (Epoch: 25 January)

Event Time Altitude Azimuth Distance (km) Brightness Sun altitude
Rises 05:07:30 0° 9° (N) 2,991 6.5 -15.6°
Reaches altitude 10° 05:09:47 10° 5° (N) 2,074 5.6 -15.3°
Maximum altitude 05:14:10 50° 290° (WNW) 825 3.3 -14.6°
Drops below altitude 10° 05:18:28 10° 215° (SW) 2,020 5.5 -13.9°
Sets 05:20:40 0° 211° (SSW) 2,904 6.4 -13.6°
